EA5AER-5 Weather Reports


time (UTC)temp
C
wind
direction
speed
KPH
gust
KPH
rain 1hr
cm
rain 24hr
cm
rain mn
cm
humidity
%
barometer
mb
20260502163351 20 133 11.3 20.9 0.00 0.03 0.03 78 1015.5
20260502161344 19 79 16.1 20.9 0.00 0.03 0.03 81 1016.1
20260502151310 20 75 14.5 22.5 0.00 0.03 0.03 79 1016.5
20260502130738 20 75 17.7 24.1 0.00 0.03 0.03 76 1017.8
20260502122430 20 99 14.5 22.5 0.00 0.03 0.03 76 1018.2
20260502120530 20 99 14.5 22.5 0.00 0.03 0.03 76 1018.2
20260502114553 20 99 14.5 22.5 0.00 0.03 0.03 76 1018.2
20260502112533 20 99 14.5 22.5 0.00 0.03 0.03 76 1018.2
20260502110532 20 99 14.5 22.5 0.00 0.03 0.03 76 1018.2
20260502104644 20 89 9.7 24.1 0.00 0.03 0.03 79 1018.6
20260502102722 20 89 9.7 24.1 0.00 0.03 0.03 79 1018.6
20260502100706 20 79 14.5 20.9 0.00 0.03 0.03 83 1018.7
20260502090619 18 230 0.0 8.0 0.00 0.03 0.03 86 1018.8
20260502070714 17 263 1.6 3.2 0.00 0.03 0.00 88 1018.5
20260502064744 17 263 1.6 3.2 0.00 0.03 0.00 88 1018.5
20260502062624 17 263 1.6 3.2 0.00 0.03 0.00 88 1018.5
20260502060633 17 263 1.6 3.2 0.00 0.03 0.00 88 1018.5
20260502054633 17 263 1.6 3.2 0.00 0.03 0.00 88 1018.5
20260502052823 17 256 4.8 9.7 0.00 0.03 0.00 88 1018.8
20260502050854 17 256 4.8 9.7 0.00 0.03 0.00 88 1018.8
20260502044803 17 256 4.8 9.7 0.00 0.03 0.00 88 1018.8
20260502042653 17 256 4.8 9.7 0.00 0.03 0.00 88 1018.8
20260502040751 17 247 1.6 4.8 0.00 0.03 0.00 87 1018.9
20260502034740 17 247 1.6 4.8 0.00 0.03 0.00 87 1018.9
20260502032553 17 208 4.8 8.0 0.00 0.03 0.00 85 1019.2
20260502030359 17 208 4.8 8.0 0.00 0.03 0.00 85 1019.2
20260502024337 17 208 4.8 8.0 0.00 0.03 0.00 85 1019.2
20260502022242 17 208 4.8 8.0 0.00 0.03 0.00 85 1019.2
20260502020024 17 208 4.8 8.0 0.00 0.03 0.00 85 1019.2
20260502014044 17 261 4.8 9.7 0.00 0.03 0.00 85 1020.3
20260502011919 17 261 4.8 9.7 0.00 0.03 0.00 85 1020.3
20260502005839 17 261 4.8 9.7 0.00 0.03 0.00 85 1020.3
20260502003846 17 261 4.8 9.7 0.00 0.03 0.00 85 1020.3
20260502001815 17 261 4.8 9.7 0.00 0.03 0.00 85 1020.3
20260501235635 17 261 4.8 9.7 0.00 0.03 0.00 85 1020.3
20260501233536 18 271 1.6 3.2 0.00 0.03 0.00 83 1020.4
20260501231424 18 271 1.6 3.2 0.00 0.03 0.00 83 1020.4
20260501225519 18 271 1.6 3.2 0.00 0.03 0.00 83 1020.4
20260501223453 18 271 1.6 3.2 0.00 0.03 0.00 83 1020.4
20260501221513 18 353 8.0 11.3 0.00 0.03 0.03 82 1020.7
20260501215519 18 353 8.0 11.3 0.00 0.03 0.03 82 1020.7
20260501213430 18 349 8.0 11.3 0.00 0.03 0.03 82 1020.9
20260501211535 18 341 4.8 11.3 0.00 0.03 0.03 82 1021.1
20260501205423 18 355 8.0 9.7 0.00 0.03 0.03 83 1019.9
20260501203500 18 355 8.0 9.7 0.00 0.03 0.03 83 1019.9
20260501201439 18 355 8.0 9.7 0.00 0.03 0.03 83 1019.9
20260501195325 18 355 8.0 9.7 0.00 0.03 0.03 83 1019.9
20260501193239 18 36 4.8 9.7 0.00 0.03 0.03 82 1019.8
20260501191334 18 357 8.0 11.3 0.00 0.03 0.03 81 1019.3
20260501185317 18 357 8.0 11.3 0.00 0.03 0.03 81 1019.3
20260501183413 18 357 8.0 11.3 0.00 0.03 0.03 81 1019.3